Home > Weather > Ra'anana > Past weeks

Flag for Israel Past Weather in Ra'anana, Israel — Yesterday and Last 2 Weeks

Now
77 °F

Scattered clouds.


Feels Like: 79 °F
Forecast: 68 / 75 °F
Wind: 9 mph from West

Location: Dov Airport

Current Time: May 26, 2016 at 5:48:46 PM

Latest Report: May 26, 2016 at 4:50 PM


Visibility: 6 mi

Pressure: 29.74 "Hg

Humidity: 74%

Dew Point: 68 °F

Location of Ra'ananaLocation

Past Weather in Ra'anana — Graph

°F

Ra'anana Temperature Yesterday

Maximum temperature yesterday: 77 °F (at 1:50 PM)
Minimum temperature yesterday: 70 °F (at 4:57 AM)
Average temperature yesterday: 73 °F

High & Low Weather Summary for the Past Weeks

 TemperatureHumidityPressure
High93 °F (May 15, 11:50 AM)94% (May 17, 5:50 AM)30.01 "Hg (May 17, 5:50 AM)
Low63 °F (May 12, 5:50 AM)11% (May 22, 4:50 PM)29.74 "Hg (May 16, 4:50 PM)
Average75 °F62%29.92 "Hg
* Reported May 11 3:50 PM — May 26 3:50 PM, Ra'anana, Weather by CustomWeather, © 2016

Note: Actual official high and low records may vary slightly from our data, if they occured in-between our weather recording intervals... More about our weather records

Advertising

Ra'anana Weather History for the Previous 24 Hours

Scroll right to see more
 ConditionsComfort  
Time TempWeatherWind HumidityBarometerVisibility
3:50 PM
Thu, May 26
79 °FClear.9 mph65%29.74 "Hg6 mi
2:50 PM81 °FClear.6 mph54%29.74 "Hg6 mi
1:50 PM81 °FSunny.8 mph54%29.74 "Hg10 mi
12:50 PM82 °FSunny.15 mph55%29.74 "Hg10 mi
11:59 AM81 °FPassing clouds.12 mph51%29.77 "HgN/A
10:50 AM84 °FSunny.8 mph43%29.74 "Hg10 mi
9:50 AM81 °FSunny.7 mph39%29.74 "Hg10 mi
8:50 AM79 °FPassing clouds.5 mph34%29.74 "HgN/A
7:50 AM75 °FSunny.2 mph41%29.74 "Hg10 mi
6:50 AM72 °FSunny.3 mph38%29.74 "Hg10 mi
5:50 AM72 °FClear.3 mph36%29.74 "Hg10 mi
4:50 AM72 °FClear.7 mph33%29.74 "Hg10 mi
10:50 PM
Wed, May 25
72 °FClear.6 mph61%29.89 "Hg10 mi
9:50 PM70 °FClear.3 mph73%29.92 "Hg10 mi
8:50 PM72 °FClear.3 mph73%29.92 "Hg10 mi
7:50 PM73 °FPassing clouds.6 mph69%29.92 "HgN/A
6:50 PM73 °FSunny.6 mph69%29.92 "Hg10 mi
5:50 PM75 °FSunny.9 mph65%29.92 "Hg10 mi
Weather by CustomWeather, © 2016

See weather overviewHow to use our weather pages